KAC562 OJAI-OKKK

Flight info

Callsign KAC562
Flight time 1h 33m
Altitude 39000
Route KULDI N318 NEVOL Q255 LUDEP P559 LOTOK A788 KFR
Aircraft A346/H-SDE2E3FGHIJ3J4J5M1RWXY/LB1D1

Departure

Time 2026-04-28 22:07
Airport Queen Alia International Airport (OJAI)

Arrival

Time 2026-04-28 23:40
Airport Kuwait International Airport (OKKK)
Time Latitude Longitude Altitude Speed Heading
2026-04-28 21:39 31.72437 35.98679 2426 ft 0 kts 170°
2026-04-28 21:55 31.72438 35.98679 2426 ft 2 kts 170°
2026-04-28 21:55 31.72461 35.98673 2422 ft 4 kts 160°
2026-04-28 21:55 31.72468 35.98668 2422 ft 4 kts 131°
2026-04-28 21:55 31.72479 35.98647 2422 ft 4 kts 101°
2026-04-28 21:56 31.72478 35.98619 2422 ft 4 kts 79°
2026-04-28 21:56 31.72475 35.98599 2422 ft 0 kts 81°
2026-04-28 22:00 31.72475 35.98601 2426 ft 1 kts 81°
2026-04-28 22:00 31.72478 35.98621 2424 ft 4 kts 81°
2026-04-28 22:00 31.72484 35.98663 2426 ft 7 kts 81°
2026-04-28 22:01 31.72493 35.98728 2424 ft 10 kts 81°
2026-04-28 22:01 31.72505 35.98817 2425 ft 12 kts 81°
2026-04-28 22:01 31.72544 35.98911 2425 ft 14 kts 31°
2026-04-28 22:01 31.72603 35.98915 2426 ft 9 kts 347°
2026-04-28 22:02 31.72663 35.98875 2423 ft 11 kts 294°
2026-04-28 22:02 31.72657 35.98774 2425 ft 14 kts 260°
2026-04-28 22:02 31.72638 35.98650 2425 ft 17 kts 260°
2026-04-28 22:02 31.72616 35.98503 2424 ft 20 kts 260°
2026-04-28 22:03 31.72591 35.98337 2423 ft 22 kts 260°
2026-04-28 22:03 31.72565 35.98152 2425 ft 24 kts 261°
2026-04-28 22:03 31.72537 35.97954 2423 ft 25 kts 261°
2026-04-28 22:03 31.72507 35.97743 2423 ft 27 kts 261°
2026-04-28 22:04 31.72476 35.97523 2422 ft 28 kts 261°
2026-04-28 22:04 31.72444 35.97294 2424 ft 29 kts 260°
2026-04-28 22:04 31.72417 35.97096 2426 ft 9 kts 266°
2026-04-28 22:04 31.72447 35.97031 2426 ft 11 kts 329°
2026-04-28 22:05 31.72517 35.97008 2423 ft 11 kts 350°
2026-04-28 22:05 31.72597 35.96992 2424 ft 12 kts 350°
2026-04-28 22:05 31.72675 35.97011 2426 ft 12 kts 50°
2026-04-28 22:05 31.72699 35.97103 2429 ft 12 kts 80°
2026-04-28 22:06 31.72727 35.97296 2425 ft 54 kts 81°
2026-04-28 22:06 31.72827 35.97996 2422 ft 118 kts 80°
2026-04-28 22:06 31.72999 35.99159 2425 ft 169 kts 80°
2026-04-28 22:06 31.73215 36.00618 2791 ft 186 kts 80°
2026-04-28 22:07 31.73442 36.02154 3416 ft 195 kts 79°
2026-04-28 22:07 31.73651 36.03773 4056 ft 203 kts 79°
2026-04-28 22:07 31.73880 36.05408 4724 ft 208 kts 77°
2026-04-28 22:07 31.73984 36.07172 5196 ft 224 kts 101°
2026-04-28 22:08 31.73172 36.08757 5569 ft 242 kts 141°
2026-04-28 22:08 31.71585 36.09522 5955 ft 258 kts 171°
2026-04-28 22:08 31.69741 36.09868 6400 ft 279 kts 172°
2026-04-28 22:08 31.67772 36.10268 7054 ft 290 kts 170°
2026-04-28 22:09 31.65801 36.10777 8036 ft 289 kts 168°
2026-04-28 22:09 31.63837 36.11314 9041 ft 290 kts 169°
2026-04-28 22:09 31.61866 36.11862 10035 ft 292 kts 168°
2026-04-28 22:09 31.59883 36.12433 10883 ft 296 kts 168°
2026-04-28 22:10 31.57865 36.13021 11758 ft 301 kts 168°
2026-04-28 22:10 31.55818 36.13617 12669 ft 305 kts 169°
2026-04-28 22:10 31.53743 36.14222 13605 ft 309 kts 169°
2026-04-28 22:10 31.51647 36.14867 14457 ft 315 kts 163°
2026-04-28 22:11 31.49727 36.16177 15264 ft 326 kts 140°
2026-04-28 22:11 31.48298 36.18314 15882 ft 343 kts 122°
2026-04-28 22:11 31.47097 36.20816 16346 ft 360 kts 120°
2026-04-28 22:11 31.45884 36.23433 16766 ft 379 kts 120°
2026-04-28 22:12 31.44586 36.26208 17138 ft 397 kts 121°
2026-04-28 22:12 31.43216 36.29101 17526 ft 414 kts 121°
2026-04-28 22:12 31.41782 36.32096 18139 ft 424 kts 121°
2026-04-28 22:12 31.40325 36.35124 18877 ft 429 kts 121°
2026-04-28 22:13 31.38847 36.38185 19604 ft 433 kts 121°
2026-04-28 22:13 31.37353 36.41273 20330 ft 438 kts 122°
2026-04-28 22:13 31.35842 36.44389 21039 ft 442 kts 122°
2026-04-28 22:13 31.34312 36.47541 21750 ft 447 kts 122°
2026-04-28 22:14 31.32812 36.50757 22423 ft 453 kts 118°
2026-04-28 22:14 31.31663 36.54223 23123 ft 460 kts 109°
2026-04-28 22:14 31.30966 36.57904 23772 ft 467 kts 99°
2026-04-28 22:14 31.30631 36.61658 24339 ft 471 kts 96°
2026-04-28 22:15 31.30373 36.65509 24904 ft 476 kts 95°
2026-04-28 22:15 31.30125 36.69386 25468 ft 480 kts 96°
2026-04-28 22:15 31.29865 36.73297 26084 ft 483 kts 96°
2026-04-28 22:15 31.29591 36.77234 26694 ft 485 kts 96°
2026-04-28 22:16 31.29307 36.81185 27293 ft 488 kts 96°
2026-04-28 22:16 31.29114 36.83817 27686 ft 491 kts 97°
2026-04-28 22:16 31.28812 36.87871 28230 ft 495 kts 97°
2026-04-28 22:16 31.28509 36.91904 28793 ft 500 kts 97°
2026-04-28 22:17 31.28206 36.95922 29337 ft 503 kts 97°
2026-04-28 22:17 31.27895 37.00022 29881 ft 507 kts 97°
2026-04-28 22:17 31.27582 37.04136 30458 ft 507 kts 97°
2026-04-28 22:17 31.27267 37.08251 31081 ft 507 kts 97°
2026-04-28 22:18 31.26950 37.12378 31631 ft 508 kts 97°
2026-04-28 22:18 31.26627 37.16501 32147 ft 510 kts 98°
2026-04-28 22:18 31.26169 37.20616 32654 ft 510 kts 102°
2026-04-28 22:18 31.25505 37.24701 33153 ft 510 kts 105°
2026-04-28 22:19 31.24630 37.28734 33617 ft 511 kts 110°
2026-04-28 22:19 31.23542 37.32702 34060 ft 512 kts 113°
2026-04-28 22:19 31.22352 37.36629 34479 ft 513 kts 114°
2026-04-28 22:19 31.21141 37.40559 34934 ft 513 kts 114°
2026-04-28 22:20 31.19931 37.44492 35409 ft 513 kts 114°
2026-04-28 22:20 31.18745 37.48375 35841 ft 513 kts 114°
2026-04-28 22:20 31.17552 37.52305 36239 ft 513 kts 114°
2026-04-28 22:20 31.16356 37.56244 36586 ft 514 kts 114°
2026-04-28 22:21 31.15158 37.60182 36935 ft 515 kts 114°
2026-04-28 22:21 31.13962 37.64129 37285 ft 515 kts 114°
2026-04-28 22:21 31.12764 37.68083 37589 ft 516 kts 115°
2026-04-28 22:21 31.11561 37.72045 37818 ft 518 kts 115°
2026-04-28 22:22 31.10352 37.76028 38067 ft 520 kts 115°
2026-04-28 22:22 31.09135 37.80024 38310 ft 522 kts 115°
2026-04-28 22:22 31.07912 37.84026 38541 ft 524 kts 115°
2026-04-28 22:22 31.06684 37.88037 38751 ft 525 kts 115°
2026-04-28 22:23 31.05452 37.92061 38921 ft 527 kts 115°
2026-04-28 22:23 31.02978 38.00129 38961 ft 528 kts 115°
2026-04-28 22:24 31.00494 38.08208 38970 ft 528 kts 115°
2026-04-28 22:24 30.98023 38.16218 38974 ft 528 kts 115°
2026-04-28 22:25 30.95529 38.24299 38964 ft 529 kts 116°
2026-04-28 22:25 30.93025 38.32377 38973 ft 529 kts 116°
2026-04-28 22:26 30.90511 38.40461 38974 ft 529 kts 116°
2026-04-28 22:26 30.88010 38.48487 38978 ft 529 kts 116°
2026-04-28 22:27 30.85490 38.56557 38977 ft 529 kts 116°
2026-04-28 22:27 30.82962 38.64626 38981 ft 529 kts 116°
2026-04-28 22:28 30.80434 38.72687 38973 ft 529 kts 117°
2026-04-28 22:28 30.77603 38.80551 38977 ft 523 kts 123°
2026-04-28 22:29 30.74387 38.88085 38983 ft 522 kts 124°
2026-04-28 22:29 30.71122 38.95654 38995 ft 522 kts 124°
2026-04-28 22:30 30.67863 39.03211 38993 ft 522 kts 124°
2026-04-28 22:30 30.64604 39.10772 38982 ft 523 kts 124°
2026-04-28 22:31 30.61340 39.18341 38993 ft 523 kts 124°
2026-04-28 22:31 30.58089 39.25856 38995 ft 523 kts 124°
2026-04-28 22:32 30.54805 39.33431 39001 ft 523 kts 124°
2026-04-28 22:32 30.51526 39.40985 39003 ft 525 kts 125°
2026-04-28 22:33 30.48224 39.48569 39005 ft 525 kts 125°
2026-04-28 22:33 30.44942 39.56094 39009 ft 525 kts 125°
2026-04-28 22:34 30.41631 39.63681 39002 ft 528 kts 124°
2026-04-28 22:34 30.38505 39.71433 39013 ft 531 kts 123°
2026-04-28 22:35 30.35426 39.79217 39011 ft 531 kts 123°
2026-04-28 22:35 30.32333 39.87007 39000 ft 533 kts 123°
2026-04-28 22:36 30.29235 39.94770 39002 ft 533 kts 123°
2026-04-28 22:36 30.26119 40.02560 39006 ft 533 kts 123°
2026-04-28 22:37 30.22988 40.10373 38998 ft 535 kts 123°
2026-04-28 22:37 30.19844 40.18194 39002 ft 536 kts 123°
2026-04-28 22:38 30.16695 40.26013 38980 ft 536 kts 124°
2026-04-28 22:38 30.13539 40.33835 38989 ft 536 kts 124°
2026-04-28 22:39 30.10377 40.41657 38987 ft 536 kts 124°
2026-04-28 22:39 30.07221 40.49466 38973 ft 536 kts 124°
2026-04-28 22:40 30.04051 40.57288 38985 ft 537 kts 124°
2026-04-28 22:40 30.00896 40.65046 38989 ft 536 kts 124°
2026-04-28 22:41 29.97721 40.72836 38989 ft 536 kts 124°
2026-04-28 22:41 29.94534 40.80639 38983 ft 536 kts 124°
2026-04-28 22:42 29.91344 40.88435 38984 ft 536 kts 124°
2026-04-28 22:42 29.88149 40.96230 38972 ft 537 kts 124°
2026-04-28 22:43 29.84968 41.03965 38974 ft 537 kts 124°
2026-04-28 22:43 29.81762 41.11749 38977 ft 537 kts 124°
2026-04-28 22:44 29.78551 41.19526 38969 ft 538 kts 125°
2026-04-28 22:44 29.75326 41.27318 38974 ft 538 kts 125°
2026-04-28 22:45 29.72428 41.35331 38952 ft 546 kts 118°
2026-04-28 22:45 29.69868 41.43589 38969 ft 547 kts 118°
2026-04-28 22:46 29.67319 41.51848 38975 ft 547 kts 118°
2026-04-28 22:46 29.64765 41.60052 38972 ft 547 kts 118°
2026-04-28 22:47 29.62179 41.68309 38969 ft 548 kts 118°
2026-04-28 22:47 29.59584 41.76568 38962 ft 547 kts 118°
2026-04-28 22:48 29.56986 41.84815 38953 ft 548 kts 118°
2026-04-28 22:48 29.54382 41.93062 38964 ft 548 kts 118°
2026-04-28 22:49 29.51777 42.01289 38944 ft 549 kts 119°
2026-04-28 22:49 29.49157 42.09542 38955 ft 549 kts 119°
2026-04-28 22:50 29.46531 42.17797 38962 ft 549 kts 119°
2026-04-28 22:50 29.43914 42.26003 38949 ft 550 kts 119°
2026-04-28 22:51 29.41271 42.34270 38957 ft 550 kts 119°
2026-04-28 22:51 29.38625 42.42527 38936 ft 551 kts 119°
2026-04-28 22:52 29.35973 42.50784 38948 ft 551 kts 119°
2026-04-28 22:52 29.33316 42.59033 38944 ft 551 kts 119°
2026-04-28 22:53 29.30654 42.67278 38941 ft 551 kts 119°
2026-04-28 22:53 29.27986 42.75519 38946 ft 551 kts 119°
2026-04-28 22:54 29.25311 42.83765 38944 ft 551 kts 119°
2026-04-28 22:54 29.22649 42.91947 38945 ft 551 kts 119°
2026-04-28 22:55 29.19963 43.00180 38941 ft 551 kts 119°
2026-04-28 22:55 29.17228 43.08389 38933 ft 548 kts 122°
2026-04-28 22:56 29.13912 43.16160 38937 ft 537 kts 130°
2026-04-28 22:56 29.10140 43.23516 38921 ft 535 kts 131°
2026-04-28 22:57 29.06335 43.30860 38933 ft 536 kts 131°
2026-04-28 22:57 29.02547 43.38224 38932 ft 536 kts 131°
2026-04-28 22:58 28.98773 43.45569 38909 ft 536 kts 130°
2026-04-28 22:58 28.94985 43.52929 38925 ft 536 kts 130°
2026-04-28 22:59 28.91204 43.60277 38927 ft 536 kts 130°
2026-04-28 22:59 28.87415 43.67617 38919 ft 536 kts 130°
2026-04-28 23:00 28.83643 43.74912 38927 ft 536 kts 130°
2026-04-28 23:00 28.79845 43.82242 38928 ft 536 kts 130°
2026-04-28 23:01 28.76044 43.89557 38932 ft 535 kts 130°
2026-04-28 23:01 28.72238 43.96875 38931 ft 535 kts 130°
2026-04-28 23:02 28.68457 44.04133 38913 ft 535 kts 130°
2026-04-28 23:02 28.64646 44.11433 38923 ft 534 kts 130°
2026-04-28 23:03 28.60841 44.18712 38923 ft 534 kts 130°
2026-04-28 23:03 28.57673 44.24758 38901 ft 534 kts 130°
2026-04-28 23:04 28.53863 44.32021 38918 ft 533 kts 130°
2026-04-28 23:04 28.47535 44.44057 38909 ft 531 kts 130°
2026-04-28 23:05 28.44354 44.50092 38919 ft 530 kts 130°
2026-04-28 23:05 28.40580 44.57244 38920 ft 530 kts 130°
2026-04-28 23:06 28.36778 44.64430 38909 ft 530 kts 130°
2026-04-28 23:06 28.32973 44.71614 38923 ft 530 kts 130°
2026-04-28 23:07 28.29160 44.78802 38909 ft 530 kts 130°
2026-04-28 23:07 28.25345 44.85977 38919 ft 530 kts 130°
2026-04-28 23:08 28.21526 44.93146 38923 ft 530 kts 130°
2026-04-28 23:08 28.17985 45.00544 38901 ft 543 kts 120°
2026-04-28 23:09 28.16099 45.08976 38912 ft 561 kts 101°
2026-04-28 23:09 28.16382 45.17823 38911 ft 570 kts 81°
2026-04-28 23:10 28.18210 45.26595 38918 ft 572 kts 76°
2026-04-28 23:10 28.20165 45.35355 38911 ft 572 kts 77°
2026-04-28 23:11 28.22022 45.44138 38898 ft 571 kts 78°
2026-04-28 23:11 28.23830 45.52925 38905 ft 571 kts 78°
2026-04-28 23:12 28.25622 45.61707 38905 ft 571 kts 78°
2026-04-28 23:12 28.27412 45.70494 38899 ft 571 kts 78°
2026-04-28 23:13 28.29200 45.79299 38910 ft 571 kts 78°
2026-04-28 23:13 28.30980 45.88100 38892 ft 572 kts 78°
2026-04-28 23:14 28.32746 45.96856 38548 ft 569 kts 78°
2026-04-28 23:14 28.33633 46.01277 37503 ft 577 kts 78°
2026-04-28 23:14 28.34538 46.05788 36409 ft 588 kts 78°
2026-04-28 23:15 28.35451 46.10355 35537 ft 594 kts 79°
2026-04-28 23:15 28.36236 46.14975 34769 ft 597 kts 82°
2026-04-28 23:15 28.36934 46.19642 34056 ft 599 kts 83°
2026-04-28 23:15 28.37600 46.24325 33267 ft 600 kts 83°
2026-04-28 23:16 28.38257 46.29003 32614 ft 598 kts 83°
2026-04-28 23:16 28.38911 46.33651 32057 ft 591 kts 83°
2026-04-28 23:16 28.39559 46.38233 31539 ft 584 kts 83°
2026-04-28 23:16 28.40202 46.42774 30886 ft 579 kts 83°
2026-04-28 23:17 28.40842 46.47282 30248 ft 574 kts 84°
2026-04-28 23:17 28.41476 46.51745 29640 ft 567 kts 84°
2026-04-28 23:17 28.42092 46.56097 29034 ft 559 kts 84°
2026-04-28 23:17 28.42705 46.60462 28076 ft 559 kts 83°
2026-04-28 23:18 28.43315 46.64813 27419 ft 552 kts 83°
2026-04-28 23:18 28.43917 46.69090 26909 ft 543 kts 83°
2026-04-28 23:18 28.44508 46.73303 26317 ft 535 kts 83°
2026-04-28 23:18 28.45088 46.77457 25732 ft 528 kts 83°
2026-04-28 23:19 28.45659 46.81561 25153 ft 521 kts 83°
2026-04-28 23:19 28.46223 46.85616 24584 ft 515 kts 83°
2026-04-28 23:19 28.46780 46.89620 24022 ft 508 kts 83°
2026-04-28 23:19 28.47330 46.93572 23470 ft 502 kts 83°
2026-04-28 23:20 28.47873 46.97476 22828 ft 496 kts 83°
2026-04-28 23:20 28.48407 47.01324 22157 ft 491 kts 83°
2026-04-28 23:20 28.48934 47.05143 21478 ft 486 kts 83°
2026-04-28 23:20 28.49454 47.08929 20843 ft 481 kts 83°
2026-04-28 23:21 28.49960 47.12622 20228 ft 476 kts 83°
2026-04-28 23:21 28.50467 47.16328 19615 ft 470 kts 83°
2026-04-28 23:21 28.50966 47.19988 19020 ft 465 kts 83°
2026-04-28 23:21 28.51459 47.23616 18404 ft 461 kts 83°
2026-04-28 23:22 28.51948 47.27212 17763 ft 456 kts 83°
2026-04-28 23:22 28.52430 47.30764 17116 ft 452 kts 83°
2026-04-28 23:22 28.52908 47.34289 16568 ft 445 kts 83°
2026-04-28 23:22 28.53376 47.37747 16083 ft 438 kts 83°
2026-04-28 23:23 28.53834 47.41148 15621 ft 431 kts 83°
2026-04-28 23:23 28.54287 47.44509 15175 ft 425 kts 83°
2026-04-28 23:23 28.54725 47.47773 14842 ft 416 kts 83°
2026-04-28 23:23 28.55154 47.50971 14719 ft 400 kts 83°
2026-04-28 23:24 28.55566 47.54047 14595 ft 385 kts 83°
2026-04-28 23:24 28.55961 47.57009 14462 ft 372 kts 83°
2026-04-28 23:24 28.56342 47.59873 14339 ft 359 kts 83°
2026-04-28 23:24 28.56712 47.62639 14250 ft 347 kts 83°
2026-04-28 23:25 28.57046 47.65314 14143 ft 336 kts 86°
2026-04-28 23:25 28.57215 47.67931 13940 ft 330 kts 90°
2026-04-28 23:25 28.57285 47.70548 13601 ft 330 kts 91°
2026-04-28 23:25 28.57336 47.73157 13249 ft 329 kts 91°
2026-04-28 23:26 28.57386 47.75757 12907 ft 327 kts 91°
2026-04-28 23:26 28.57440 47.78341 12586 ft 325 kts 91°
2026-04-28 23:26 28.57495 47.80915 12254 ft 324 kts 92°
2026-04-28 23:26 28.57553 47.83475 11928 ft 322 kts 92°
2026-04-28 23:27 28.57609 47.86028 11602 ft 321 kts 92°
2026-04-28 23:27 28.57664 47.88572 11275 ft 321 kts 92°
2026-04-28 23:27 28.57718 47.91110 10941 ft 319 kts 92°
2026-04-28 23:27 28.57771 47.93606 10624 ft 318 kts 92°
2026-04-28 23:28 28.57826 47.96127 10307 ft 317 kts 91°
2026-04-28 23:28 28.58182 47.98612 9963 ft 321 kts 71°
2026-04-28 23:28 28.59254 48.00829 9627 ft 321 kts 54°
2026-04-28 23:28 28.60615 48.02851 9288 ft 320 kts 51°
2026-04-28 23:29 28.62008 48.04823 8980 ft 318 kts 51°
2026-04-28 23:29 28.63379 48.06791 8685 ft 316 kts 52°
2026-04-28 23:29 28.64721 48.08762 8378 ft 314 kts 52°
2026-04-28 23:29 28.66043 48.10732 8084 ft 311 kts 53°
2026-04-28 23:30 28.67332 48.12666 7845 ft 307 kts 53°
2026-04-28 23:30 28.68649 48.14565 7746 ft 296 kts 44°
2026-04-28 23:30 28.70325 48.15706 7590 ft 281 kts 10°
2026-04-28 23:30 28.72230 48.15760 7317 ft 271 kts 348°
2026-04-28 23:31 28.74075 48.15379 7047 ft 268 kts 344°
2026-04-28 23:31 28.75903 48.14959 6759 ft 267 kts 345°
2026-04-28 23:31 28.77738 48.14582 6494 ft 266 kts 347°
2026-04-28 23:31 28.79567 48.14253 6227 ft 266 kts 348°
2026-04-28 23:32 28.81399 48.13952 5951 ft 265 kts 348°
2026-04-28 23:32 28.83221 48.13667 5704 ft 263 kts 349°
2026-04-28 23:32 28.85028 48.13393 5441 ft 261 kts 349°
2026-04-28 23:32 28.86822 48.13124 5191 ft 259 kts 349°
2026-04-28 23:33 28.88600 48.12857 4939 ft 257 kts 348°
2026-04-28 23:33 28.90367 48.12602 4695 ft 256 kts 349°
2026-04-28 23:33 28.92135 48.12401 4431 ft 254 kts 350°
2026-04-28 23:33 28.93842 48.12059 4174 ft 249 kts 340°
2026-04-28 23:34 28.95452 48.11402 3928 ft 244 kts 333°
2026-04-28 23:34 28.96976 48.10630 3802 ft 233 kts 331°
2026-04-28 23:34 28.98427 48.09854 3603 ft 228 kts 331°
2026-04-28 23:34 28.99852 48.09084 3360 ft 225 kts 331°
2026-04-28 23:35 29.01264 48.08323 3117 ft 223 kts 331°
2026-04-28 23:35 29.02647 48.07581 2982 ft 215 kts 331°
2026-04-28 23:35 29.03975 48.06872 2982 ft 206 kts 331°
2026-04-28 23:35 29.05244 48.06194 2982 ft 202 kts 330°
2026-04-28 23:36 29.06530 48.05506 2983 ft 200 kts 330°
2026-04-28 23:36 29.07786 48.04834 2965 ft 199 kts 331°
2026-04-28 23:36 29.09029 48.04169 2764 ft 193 kts 331°
2026-04-28 23:36 29.10194 48.03549 2553 ft 180 kts 332°
2026-04-28 23:37 29.11308 48.02955 2304 ft 170 kts 332°
2026-04-28 23:37 29.12349 48.02401 2025 ft 160 kts 332°
2026-04-28 23:37 29.13333 48.01878 1756 ft 151 kts 333°
2026-04-28 23:37 29.14250 48.01391 1542 ft 141 kts 332°
2026-04-28 23:38 29.15125 48.00909 1401 ft 139 kts 333°
2026-04-28 23:38 29.15997 48.00433 1286 ft 138 kts 334°
2026-04-28 23:38 29.16869 47.99976 1078 ft 138 kts 334°
2026-04-28 23:38 29.17749 47.99511 818 ft 140 kts 334°
2026-04-28 23:39 29.18618 47.99012 601 ft 141 kts 336°
2026-04-28 23:39 29.19520 47.98543 465 ft 143 kts 338°
2026-04-28 23:39 29.20423 47.98070 375 ft 142 kts 338°
2026-04-28 23:39 29.21314 47.97603 230 ft 140 kts 338°
2026-04-28 23:40 29.22151 47.97168 175 ft 122 kts 335°
2026-04-28 23:40 29.22833 47.96801 171 ft 88 kts 335°
2026-04-28 23:40 29.23211 47.96601 172 ft 27 kts 341°
2026-04-28 23:40 29.23352 47.96602 172 ft 11 kts 20°
2026-04-28 23:41 29.23415 47.96629 171 ft 11 kts 20°
2026-04-28 23:41 29.23489 47.96665 171 ft 12 kts 34°
2026-04-28 23:41 29.23526 47.96750 172 ft 14 kts 96°
2026-04-28 23:41 29.23509 47.96874 173 ft 17 kts 99°
2026-04-28 23:42 29.23483 47.97015 174 ft 18 kts 118°
2026-04-28 23:42 29.23407 47.97088 175 ft 8 kts 141°
2026-04-28 23:42 29.23398 47.97156 175 ft 11 kts 69°
2026-04-28 23:42 29.23437 47.97253 175 ft 15 kts 65°
2026-04-28 23:43 29.23486 47.97376 175 ft 18 kts 66°
2026-04-28 23:43 29.23538 47.97501 176 ft 15 kts 52°
2026-04-28 23:43 29.23590 47.97504 175 ft 9 kts 330°
2026-04-28 23:43 29.23658 47.97471 175 ft 12 kts 342°
2026-04-28 23:44 29.23748 47.97434 175 ft 14 kts 338°
2026-04-28 23:44 29.23806 47.97405 175 ft 8 kts 325°
2026-04-28 23:44 29.23821 47.97354 175 ft 7 kts 258°
2026-04-28 23:44 29.23810 47.97320 175 ft 0 kts 246°
2026-04-28 23:45 29.23810 47.97319 175 ft 0 kts 246°